Regional Weather Roundup
Issued by NWS Midland/Odessa, TX

Skip options and go directly to product.
Home | Oldest Version | Previous Version | Current Version | All | Text Only | Save Text | Print | Product List | Glossary Off

Skip product version selection by date and time.   

307
ASUS44 KMAF 212210
RWRMAF
MIDLAND AREA WEATHER ROUNDUP
NATIONAL WEATHER SERVICE MIDLAND TX
400 PM CST SUN DEC 21 2014

...IN SOUTHWEST TEXAS AND SOUTHEAST NEW MEXICO...

CITY           SKY/WX    TMP DP  RH WIND       PRES   REMARKS
ALPINE         SUNNY     63  22  20 W20       29.96S
ANDREWS        FAIR      65  27  23 W20G26    29.76F
ARTESIA        PTSUNNY   66  28  24 SW23      29.76F
BIG SPRING     SUNNY     67  27  22 SW18      29.78F
CARLSBAD       CLOUDY    67  25  20 W28G36    29.76F
DRYDEN           N/A     73  29  19 SW18G24   29.82F
FORT STOCKTON  SUNNY     71  20  14 W15G24    29.82F
GUAD PASS      NOT AVBL
HOBBS          SUNNY     63  27  25 SW17G24   29.76F
MARFA          SUNNY     61  23  23 W18G25    29.95F
MIDLAND AIRPK  SUNNY     67  29  24 SW16G22   29.78F
MIDLAND INTL   SUNNY     67  29  24 SW22G28   29.77F
ODESSA         SUNNY     68  24  19 W22G29    29.78F
PECOS          SUNNY     70  24  18 W22G29    29.82R
PRESIDIO       FAIR      68  28  22 S6        29.90F
SEMINOLE       SUNNY     66  25  21 W22       29.76F
SNYDER         SUNNY     66  31  27 SW20G26   29.74S
WINK           MOSUNNY   69  23  17 W20G31    29.77F
$$
...OTHER STATIONS IN TEXAS...

CITY           SKY/WX    TMP DP  RH WIND       PRES   REMARKS
ABILENE        SUNNY     61  42  49 S21       29.76F
AMARILLO       CLOUDY    59  23  25 S12       29.63F
AUSTIN         CLOUDY    55  50  83 S10       29.91F
BROWNSVILLE    CLOUDY    67  61  81 N8        29.92F
CORPUS CHRISTI CLOUDY    61  54  77 E5        29.95S
DALLAS FTW     CLOUDY    51  45  79 S14       29.84F
DEL RIO        CLOUDY    55  48  77 SE12      29.89F
EL PASO        PTSUNNY   63  25  23 VRB7      29.93F
HOUSTON INT    CLOUDY    60  49  66 SE3       29.97F
LUBBOCK        PTSUNNY   64  25  22 W28G37    29.67F
SAN ANGELO     SUNNY     63  41  44 SW18G24   29.80F
SAN ANTONIO    CLOUDY    56  50  80 SW6       29.93F
WACO           CLOUDY    53  46  77 S14       29.90F
WICHITA FALLS  NOT AVBL
$$
...OTHER LOCATIONS IN NEW MEXICO...

CITY           SKY/WX    TMP DP  RH WIND       PRES   REMARKS
ALAMAGORDO     PTSUNNY   55  27  33 CALM      29.93F
ALBUQUERQUE    PTSUNNY   50  28  42 CALM      29.92F
CANNON AFB     CLOUDY    58  26  29 W25G39    29.68R
CLOVIS         PTSUNNY   59  27  29 W30G38    29.66R
HOLLOMAN AFB   PTSUNNY   56  30  35 CALM      29.91F
ROSWELL        PTSUNNY   67  25  20 W17       29.72F
RUIDOSO        PTSUNNY   50  21  32 N14G29    29.90S
SANTA FE       PTSUNNY   45  25  45 N7        29.88F
TRUTH OR CONSE MOSUNNY   57  25  29 S12       29.91F
TUCUMCARI      CLOUDY    60  21  22 W18       29.63R
$$

USA.gov is the U.S. government's official web portal to all federal, state and local government web resources and services.